Weather History for Haines, AK

Change the Weather History Date:

Thursday, November 1, 2012

  Actual Average Record
Temperature  
Mean Temperature 28 °F -  
Max Temperature 30 °F 37 °F 51 °F (2003)
Min Temperature 26 °F 30 °F 4 °F (1975)
Degree Days  
Heating Degree Days 37    
Moisture  
Dew Point 20 °F    
Average Humidity 75    
Maximum Humidity 93    
Minimum Humidity 64    
Precipitation  
Precipitation 0.00 in - - ()
Sea Level Pressure  
Sea Level Pressure 29.88 in    
Wind  
Wind Speed 16 mph (NW)    
Max Wind Speed 21 mph    
Max Gust Speed 30 mph    
Visibility 9 miles    
Events Snow    
Averages and records for this station are not official NWS values.
T = Trace of Precipitation, MM = Missing Value Source: NWS Daily Summary

Daily Weather History Graph

Daily Weather History Graph

Search for Another Location

Airport:

Trip Planner

Search our weather history database for the weather conditions in past years. The results will help you decide how hot, cold, wet, or windy it might be!

Date:

Astronomy

Nov. 01, 2012 Rise Set
Actual Time 8:22 AM AKDT 5:07 PM AKDT
Civil Twilight 7:38 AM AKDT 5:51 PM AKDT
Nautical Twilight 6:50 AM AKDT 6:39 PM AKDT
Astronomical Twilight 6:03 AM AKDT 7:26 PM AKDT
Moon 6:35 PM AKDT (11/1) 11:37 AM AKDT (11/1)
Length of Visible Light 10h 12m
Length of Day
8h 44m
Waning Gibbous, 92% of the Moon is Illuminated
Nov 1
Waning Gibbous
Nov 6
Last Quarter
Nov 13
New
Nov 20
First Quarter
Nov 28
Full

Hourly Weather History & Observations

Time (AKDT) Temp. Windchill Dew Point Humidity Pressure Visibility Wind Dir Wind Speed Gust Speed Precip Events Conditions
12:01 AM 26.6 °F 14.7 °F 24.8 °F 93% 29.76 in 2.0 mi WNW 15.0 mph - 0.00 in Snow Light Snow
12:14 AM 26.6 °F 14.7 °F 24.8 °F 93% 29.76 in 3.0 mi WNW 15.0 mph - 0.00 in Snow Light Snow
12:54 AM 26.1 °F 13.6 °F 21.9 °F 84% 29.78 in 9.0 mi WNW 16.1 mph 20.7 mph 0.00 in   Overcast
1:54 AM 26.1 °F 14.5 °F 21.9 °F 84% 29.80 in 4.0 mi WNW 13.8 mph - 0.00 in Snow Light Snow
2:18 AM 26.6 °F 14.3 °F 21.2 °F 80% 29.79 in 9.0 mi WNW 16.1 mph - 0.00 in Snow Light Snow
2:44 AM 26.6 °F 13.8 °F 23.0 °F 86% 29.81 in 10.0 mi WNW 17.3 mph 23.0 mph 0.00 in   Overcast
2:54 AM 26.1 °F 14.0 °F 21.9 °F 84% 29.82 in 10.0 mi WNW 15.0 mph - 0.00 in   Overcast
3:54 AM 26.1 °F 14.5 °F 21.0 °F 81% 29.84 in 10.0 mi NW 13.8 mph - 0.00 in Snow Light Snow
5:54 AM 26.1 °F 13.1 °F 21.0 °F 81% 29.86 in 9.0 mi WNW 17.3 mph 23.0 mph 0.00 in Snow Light Snow
6:54 AM 26.1 °F 13.1 °F 19.9 °F 78% 29.87 in 7.0 mi WNW 17.3 mph 23.0 mph 0.00 in Snow Light Snow
7:54 AM 26.1 °F 13.1 °F 19.9 °F 78% 29.88 in 3.0 mi WNW 17.3 mph - 0.00 in Snow Light Snow
8:54 AM 26.1 °F 12.7 °F 19.0 °F 75% 29.90 in 10.0 mi WNW 18.4 mph - 0.00 in   Overcast
9:54 AM 26.1 °F 12.3 °F 19.9 °F 78% 29.93 in 9.0 mi NW 19.6 mph - 0.00 in Snow Light Snow
10:54 AM 26.1 °F 12.0 °F 19.0 °F 75% 29.94 in 10.0 mi WNW 20.7 mph 27.6 mph 0.00 in   Overcast
11:54 AM 27.0 °F 14.3 °F 18.0 °F 69% 29.95 in 10.0 mi WNW 17.3 mph 27.6 mph 0.00 in   Overcast
12:54 PM 28.0 °F 14.9 °F 18.0 °F 66% 29.94 in 10.0 mi NW 19.6 mph - N/A   Overcast
2:54 PM 28.9 °F 16.1 °F 18.0 °F 64% 29.93 in 10.0 mi NW 19.6 mph 28.8 mph N/A   Overcast
3:54 PM 30.0 °F 17.9 °F 19.0 °F 64% 29.92 in 10.0 mi NW 18.4 mph 25.3 mph N/A   Overcast
4:54 PM 28.9 °F 16.5 °F 19.0 °F 67% 29.92 in 10.0 mi NW 18.4 mph 24.2 mph N/A   Clear
5:54 PM 28.0 °F 17.5 °F 19.0 °F 69% 29.91 in 10.0 mi NW 12.7 mph 20.7 mph N/A   Clear
6:54 PM 28.0 °F 16.5 °F 19.0 °F 69% 29.91 in 10.0 mi NW 15.0 mph - N/A   Clear
7:54 PM 28.0 °F 16.5 °F 18.0 °F 66% 29.91 in 10.0 mi NW 15.0 mph 25.3 mph N/A   Clear
8:54 PM 27.0 °F 15.2 °F 18.0 °F 69% 29.91 in 10.0 mi NW 15.0 mph 23.0 mph N/A   Clear
9:54 PM 26.1 °F 12.7 °F 17.1 °F 69% 29.91 in 10.0 mi WNW 18.4 mph - N/A   Clear
10:54 PM 26.1 °F 14.0 °F 16.0 °F 66% 29.91 in 10.0 mi NW 15.0 mph 29.9 mph N/A   Clear
11:54 PM 26.1 °F 13.6 °F 16.0 °F 66% 29.90 in 10.0 mi NW 16.1 mph 25.3 mph N/A   Clear